| time (UTC) | temp F | wind direction | speed MPH | gust MPH | rain 1hr in | rain 24hr in | rain mn in | humidity % | barometer mb |
| 20260903204510 | 67 | 230 | 8.0 | 0.0 | 0.00 | 0.00 | 0.00 | 71 | 1008.6 |
| 20260903203009 | 67 | 230 | 8.0 | 0.0 | 0.00 | 0.00 | 0.00 | 71 | 1008.6 |
| 20260903201510 | 67 | 230 | 8.0 | 0.0 | 0.00 | 0.00 | 0.00 | 72 | 1008.5 |
| 20260903200009 | 67 | 230 | 7.0 | 0.0 | 0.00 | 0.00 | 0.00 | 72 | 1008.5 |
| 20260903194510 | 67 | 230 | 7.0 | 0.0 | 0.00 | 0.00 | 0.00 | 75 | 1008.5 |
| 20260903193009 | 67 | 240 | 6.0 | 0.0 | 0.00 | 0.00 | 0.00 | 75 | 1008.5 |
| 20260903191509 | 66 | 240 | 6.0 | 0.0 | 0.00 | 0.00 | 0.00 | 77 | 1008.6 |
| 20260903190010 | 66 | 240 | 6.0 | 0.0 | 0.00 | 0.00 | 0.00 | 77 | 1008.6 |
| 20260903184509 | 67 | 240 | 6.0 | 0.0 | 0.00 | 0.00 | 0.00 | 78 | 1008.6 |
| 20260903183009 | 67 | 250 | 6.0 | 0.0 | 0.00 | 0.00 | 0.00 | 78 | 1008.6 |
| 20260903181509 | 66 | 250 | 6.0 | 0.0 | 0.00 | 0.00 | 0.00 | 81 | 1008.4 |
| 20260903180009 | 66 | 250 | 5.0 | 0.0 | 0.00 | 0.00 | 0.00 | 81 | 1008.4 |
| 20260903174509 | 66 | 270 | 4.0 | 0.0 | 0.00 | 0.00 | 0.00 | 84 | 1008.2 |
| 20260903173009 | 66 | 270 | 4.0 | 0.0 | 0.00 | 0.00 | 0.00 | 84 | 1008.2 |
| 20260903171509 | 65 | 270 | 4.0 | 0.0 | 0.00 | 0.00 | 0.00 | 85 | 1008.3 |
| 20260903170009 | 65 | 270 | 4.0 | 0.0 | 0.00 | 0.00 | 0.00 | 85 | 1008.3 |
| 20260903164509 | 65 | 270 | 4.0 | 0.0 | 0.00 | 0.00 | 0.00 | 85 | 1008.5 |
| 20260903163009 | 65 | 240 | 8.0 | 0.0 | 0.00 | 0.00 | 0.00 | 85 | 1008.5 |
| 20260903161509 | 72 | 240 | 8.0 | 0.0 | 0.00 | 0.00 | 0.00 | 55 | 1008.3 |
| 20260903160009 | 72 | 240 | 10.0 | 0.0 | 0.00 | 0.00 | 0.00 | 55 | 1008.3 |
| 20260903154509 | 73 | 250 | 10.0 | 0.0 | 0.00 | 0.00 | 0.00 | 53 | 1008.4 |
| 20260903153010 | 73 | 250 | 10.0 | 0.0 | 0.00 | 0.00 | 0.00 | 53 | 1008.4 |
| 20260903151509 | 72 | 250 | 10.0 | 0.0 | 0.00 | 0.00 | 0.00 | 54 | 1008.5 |
| 20260903150010 | 72 | 240 | 6.0 | 0.0 | 0.00 | 0.00 | 0.00 | 54 | 1008.5 |
| 20260903144509 | 71 | 240 | 6.0 | 0.0 | 0.00 | 0.00 | 0.00 | 59 | 1008.8 |
| 20260903143009 | 71 | 250 | 12.0 | 0.0 | 0.00 | 0.00 | 0.00 | 59 | 1008.8 |
| 20260903141510 | 73 | 250 | 12.0 | 0.0 | 0.00 | 0.00 | 0.00 | 50 | 1008.6 |
| 20260903140009 | 73 | 240 | 13.0 | 0.0 | 0.00 | 0.00 | 0.00 | 50 | 1008.6 |
| 20260903134510 | 73 | 240 | 13.0 | 0.0 | 0.00 | 0.00 | 0.00 | 51 | 1008.8 |
| 20260903133010 | 73 | 230 | 12.0 | 0.0 | 0.00 | 0.00 | 0.00 | 51 | 1008.8 |
| 20260903131509 | 72 | 230 | 12.0 | 0.0 | 0.00 | 0.00 | 0.00 | 51 | 1009.0 |
| 20260903130010 | 72 | 230 | 13.0 | 0.0 | 0.00 | 0.00 | 0.00 | 51 | 1009.0 |
| 20260903124509 | 71 | 230 | 13.0 | 0.0 | 0.00 | 0.00 | 0.00 | 53 | 1009.5 |
| 20260903123010 | 71 | 230 | 11.0 | 0.0 | 0.00 | 0.00 | 0.00 | 53 | 1009.5 |
| 20260903121510 | 70 | 230 | 11.0 | 0.0 | 0.00 | 0.00 | 0.00 | 53 | 1009.7 |
| 20260903120010 | 70 | 220 | 10.0 | 0.0 | 0.00 | 0.00 | 0.00 | 53 | 1009.7 |
| 20260903114510 | 70 | 220 | 10.0 | 0.0 | 0.00 | 0.00 | 0.00 | 54 | 1010.0 |
| 20260903113009 | 70 | 220 | 9.0 | 0.0 | 0.00 | 0.00 | 0.00 | 54 | 1010.0 |
| 20260903111510 | 69 | 220 | 9.0 | 0.0 | 0.00 | 0.00 | 0.00 | 55 | 1010.5 |
| 20260903110009 | 69 | 220 | 8.0 | 0.0 | 0.00 | 0.00 | 0.00 | 55 | 1010.5 |
| 20260903104510 | 69 | 220 | 8.0 | 0.0 | 0.00 | 0.00 | 0.00 | 56 | 1010.9 |
| 20260903103010 | 69 | 220 | 10.0 | 0.0 | 0.00 | 0.00 | 0.00 | 56 | 1010.9 |
| 20260903101509 | 68 | 220 | 10.0 | 0.0 | 0.00 | 0.00 | 0.00 | 60 | 1011.2 |
| 20260903100009 | 68 | 220 | 8.0 | 0.0 | 0.00 | 0.00 | 0.00 | 60 | 1011.2 |
| 20260903094509 | 67 | 210 | 7.0 | 0.0 | 0.00 | 0.00 | 0.00 | 61 | 1011.3 |
| 20260903093009 | 67 | 210 | 7.0 | 0.0 | 0.00 | 0.00 | 0.00 | 61 | 1011.3 |
| 20260903091511 | 66 | 210 | 7.0 | 0.0 | 0.00 | 0.00 | 0.00 | 63 | 1011.6 |
| 20260903090009 | 66 | 220 | 8.0 | 0.0 | 0.00 | 0.00 | 0.00 | 63 | 1011.6 |
| 20260903084509 | 64 | 220 | 7.0 | 0.0 | 0.00 | 0.00 | 0.00 | 67 | 1011.9 |
| 20260903083009 | 64 | 220 | 7.0 | 0.0 | 0.00 | 0.00 | 0.00 | 67 | 1011.9 |
| 20260903081509 | 63 | 220 | 6.0 | 0.0 | 0.00 | 0.00 | 0.00 | 68 | 1012.0 |
| 20260903080009 | 63 | 220 | 6.0 | 0.0 | 0.00 | 0.00 | 0.00 | 68 | 1012.0 |
| 20260903074509 | 61 | 220 | 6.0 | 0.0 | 0.00 | 0.00 | 0.00 | 72 | 1012.1 |
| 20260903073009 | 61 | 220 | 5.0 | 0.0 | 0.00 | 0.00 | 0.00 | 72 | 1012.1 |
| 20260903071509 | 60 | 220 | 5.0 | 0.0 | 0.00 | 0.00 | 0.00 | 76 | 1012.3 |
| 20260903070010 | 60 | 200 | 4.0 | 0.0 | 0.00 | 0.00 | 0.00 | 76 | 1012.3 |
| 20260903064509 | 59 | 220 | 4.0 | 0.0 | 0.00 | 0.00 | 0.00 | 77 | 1012.3 |
| 20260903063009 | 59 | 220 | 4.0 | 0.0 | 0.00 | 0.00 | 0.00 | 77 | 1012.3 |
| 20260903061509 | 59 | 220 | 4.0 | 0.0 | 0.00 | 0.00 | 0.00 | 77 | 1012.6 |
| 20260903060009 | 59 | 220 | 5.0 | 0.0 | 0.00 | 0.00 | 0.00 | 77 | 1012.6 |
| 20260903054509 | 58 | 220 | 5.0 | 0.0 | 0.00 | 0.00 | 0.00 | 78 | 1012.3 |
| 20260903053010 | 58 | 220 | 5.0 | 0.0 | 0.00 | 0.00 | 0.00 | 78 | 1012.3 |
| 20260903051509 | 58 | 220 | 5.0 | 0.0 | 0.00 | 0.00 | 0.00 | 79 | 1012.3 |
| 20260903050010 | 58 | 210 | 4.0 | 0.0 | 0.00 | 0.00 | 0.00 | 79 | 1012.3 |
| 20260903044509 | 58 | 210 | 2.0 | 0.0 | 0.00 | 0.00 | 0.00 | 79 | 1012.4 |
| 20260903043010 | 58 | 210 | 2.0 | 0.0 | 0.00 | 0.00 | 0.00 | 79 | 1012.4 |
| 20260903041510 | 58 | 230 | 2.0 | 0.0 | 0.00 | 0.00 | 0.00 | 81 | 1012.7 |
| 20260903040010 | 58 | 230 | 2.0 | 0.0 | 0.00 | 0.00 | 0.00 | 81 | 1012.7 |
| 20260903034509 | 58 | 220 | 1.0 | 0.0 | 0.00 | 0.00 | 0.00 | 81 | 1012.6 |
| 20260903033009 | 58 | 220 | 1.0 | 0.0 | 0.00 | 0.00 | 0.00 | 81 | 1012.6 |
| 20260903031510 | 59 | 220 | 1.0 | 0.0 | 0.00 | 0.00 | 0.00 | 78 | 1012.7 |
| 20260903030009 | 59 | 230 | 2.0 | 0.0 | 0.00 | 0.00 | 0.00 | 78 | 1012.7 |